GAOFEN 5 01A

导读

高分五号01A(GAOFEN 5 01A)卫星是中国于2022年12月8日发射的高光谱遥感卫星,隶属于中国高分专项对地观测体系。该卫星主要服务于生态环境监测、自然资源调查与气候变化研究等领域,能够提供高质量高光谱观测数据,为我国污染防治、生态保护、资源开发等工作提供关键的数据支撑,推动我国遥感应用与环境科学研究发展。

基本信息
目录编号:
54640
目录名称:
GAOFEN 5 01A
国际标识:
2022-165A
轨道中心:
EARTH
卫星名称:
GAOFEN 5 01A
卫星全名:
--
卫星状态:
在轨 (已飞行1373 天)
发射日期:
2022-12-08 UTC
国别 :
中国 (CN)
星等 :
--
轨道信息
数据来源 国际轨道数据
星历时间: 2026-09-10T21:38:48+0800
12小时前
查看轨道信息
半长轴: 7078.567km
偏心率: 0.0003049
轨道倾角: 98.238°
近地点辐角 94.432°
升交点赤经 190.030°
平近点角 265.722°
近地点: 698.271km
远地点: 702.589km
周期: 98.782分钟
每日圈数: 14.577559
详细信息
使用方式:
暂无
2D轨道图
3D轨道图
轨道高度分析图
轨道倾角分析图
轨道综合分析图
查看轨道综合分析图
与全量物体交会距离演化趋势
与全量物体交会风险概率演化趋势